CW8496 Weather Reports


Display with metric or nautical units.
time (UTC)temp
F
wind
direction
speed
MPH
gust
MPH
rain 1hr
in
rain 24hr
in
rain mn
in
humidity
%
barometer
mb
20260506033018 62 0 3.0 9.0 0.00 0.00 0.00 60 1027.7
20260506030037 60 0 3.0 11.0 0.00 0.00 0.00 58 1027.6
20260506023019 60 338 2.0 9.0 0.00 0.00 0.00 64 1028.4
20260506020017 59 0 2.0 8.0 0.00 0.00 0.00 58 1028.7
20260506013018 58 23 3.0 8.0 0.00 0.00 0.00 60 1029.2
20260506010017 57 0 4.0 10.0 0.00 0.00 0.00 59 1029.2
20260506003057 57 23 3.0 8.0 0.00 0.00 0.00 65 1029.8
20260506000018 55 23 3.0 9.0 0.00 0.00 0.00 71 1029.8
20260505233058 54 23 3.0 9.0 0.00 0.00 0.00 72 1029.7
20260505230018 54 113 3.0 10.0 0.00 0.00 0.00 77 1030.0
20260505223016 52 113 2.0 10.0 0.00 0.00 0.00 77 1029.7
20260505220027 49 158 2.0 9.0 0.00 0.00 0.00 80 1029.2
20260505213036 47 158 2.0 9.0 0.00 0.00 0.00 82 1028.6
20260505210016 46 158 2.0 10.0 0.00 0.00 0.00 82 1028.4
20260505203040 46 135 2.0 8.0 0.00 0.00 0.00 82 1028.4
20260505200018 46 135 3.0 8.0 0.00 0.00 0.00 81 1028.3
20260505193019 46 158 2.0 9.0 0.00 0.00 0.00 80 1028.4
20260505190018 46 135 2.0 9.0 0.00 0.00 0.00 79 1028.4
20260505183018 46 158 2.0 8.0 0.00 0.00 0.00 79 1028.7
20260505180038 46 158 2.0 7.0 0.00 0.00 0.00 79 1028.7
20260505173018 46 158 2.0 7.0 0.00 0.00 0.00 78 1028.8
20260505170019 44 0.0 5.0 0.00 0.00 0.00 77 1029.4
20260505163018 43 0.0 0.0 0.00 0.00 0.00 75 1029.2
20260505153017 41 0.0 0.0 0.00 0.00 0.00 84 1029.7
20260505123020 43 0.0 3.0 0.00 0.03 0.01 87 1029.9
20260505113018 43 0.0 2.0 0.00 0.06 0.01 90 1029.9
20260505100018 45 0.0 4.0 0.00 0.12 0.01 91 1029.7
20260505093018 45 0.0 2.0 0.00 0.15 0.01 91 1029.3
20260505090018 46 0.0 4.0 0.00 0.19 0.01 90 1029.0
20260505083018 46 158 1.0 4.0 0.00 0.23 0.01 89 1028.6
20260505080019 47 0.0 3.0 0.00 0.27 0.01 87 1028.4
20260505073017 48 270 1.0 6.0 0.00 0.31 0.01 83 1028.1
20260505070019 49 270 1.0 5.0 0.00 0.37 0.01 80 1027.9
20260505063018 51 0.0 7.0 0.00 0.39 0.01 74 1028.0
20260505060017 51 270 1.0 6.0 0.00 0.41 0.01 75 1027.9
20260505053018 52 270 2.0 6.0 0.00 0.41 0.01 74 1028.1
20260505040019 57 293 1.0 5.0 0.00 0.41 0.01 64 1028.4